Regional Weather Roundup
Issued by NWS

Home | Current Version | Previous Version | Text Only | Print | Product List | Glossary On
Versions: 1 2 3 4 5 6 7 8 9 10 11 12 13 14 15 16 17 18 19 20 21 22 23 24 25 26 27 28 29 30 31 32 33 34 35 36 37 38 39 40 41 42 43 44 45 46 47 48 49 50
000
ASUS45 KBOU 252307
RWRCO

WEATHER ROUNDUP FOR COLORADO
NATIONAL WEATHER SERVICE DENVER/BOULDER CO
400 PM MST TUE NOV 25 2014

NOTE: "FAIR" INDICATES FEW OR NO CLOUDS BELOW 12000 FEET WITH NO
SIGNIFICANT WEATHER AND/OR OBSTRUCTIONS TO VISIBILITY.

COZ001>005-013-030-031-260000-
...NORTHWEST COLORADO...

CITY           SKY/WX    TMP DP  RH WIND       PRES   REMARKS
CRAIG          CLOUDY    29  20  69 VRB5      30.16S WCI  24
HAYDEN         CLOUDY    25  18  74 SE7       30.16S WCI  17
MEEKER         CLOUDY    32  22  66 NE6       30.22R WCI  26
MOUNT WERNER   NOT AVBL
STEAMBOAT SPGS CLOUDY    21  20  94 W3        30.17R
WALDEN         MOCLDY    30  21  69 W30G36    30.02S WCI  15
$$

COZ006>008-011-260000-
...WEST CENTRAL VALLEYS...

CITY           SKY/WX    TMP DP  RH WIND       PRES   REMARKS
GRAND JUNCTION MOCLDY    37  15  40 N5        30.28F
MONTROSE       CLOUDY    35  13  40 NE3       30.29F
EAGLE          CLOUDY    30  21  69 SW16      30.24F WCI  19
RIFLE          CLOUDY    28  21  75 NE3       30.30S
DELTA          CLOUDY    41  19  41 E6        30.30S
NUCLA          CLOUDY    43   7  22 E5        30.34R
$$

COZ017>023-064>068-260000-
...SOUTHWEST COLORADO...

CITY           SKY/WX    TMP DP  RH WIND       PRES   REMARKS
DURANGO        CLEAR     43   9  24 SW13      30.22F
CORTEZ         CLEAR     41   5  22 W9        30.32F
PAGOSA SPRINGS CLEAR     36   6  28 E5        30.25S
TELLURIDE      CLOUDY    27  19  72 E5        30.35S WCI  22
WOLF CREEK PAS CLEAR     19   7  58 MISG      30.22S
$$

COZ009-010-012-014-032>034-037-058>063-260000-
...CENTRAL COLORADO...

CITY           SKY/WX    TMP DP  RH WIND       PRES   REMARKS
ASPEN          LGT SNOW  22  19  89 N5        30.22R FOG     WCI  16
BUENA VISTA    PTCLDY    31  15  51 W28G38    30.09R WCI  17
COPPER MTN     CLOUDY    18  10  73 W26G36    30.10R WCI  -1
BERTHOUD PASS  NOT AVBL
COTTONWOOD PAS LGT SNOW  28  16  59 NW22G38   30.02S WCI  15
GUNNISON       CLOUDY    25  18  74 N8        30.30R WCI  16
KREMMLING      LGT SNOW  28  21  74 W14G20    30.13F WCI  17
LEADVILLE      LGT SNOW  18  14  84 N14G21    30.14R VSB 1   WCI   4
MONARCH PASS   CLOUDY    12   9  85 W49G56    30.24F WCI -14
SALIDA         PTCLDY    37  14  39 W31G41    30.12F
SUNLIGHT       CLOUDY   N/A N/A N/A SW5       30.19S
WILKERSON PASS MOCLDY    23  14  68 MISG      29.97R
$$

COZ069>075-260000-
...SAN LUIS VALLEY/SANGRE DE CRISTO MOUNTAINS...

CITY           SKY/WX    TMP DP  RH WIND       PRES   REMARKS
ALAMOSA        CLEAR     34   3  27 S10       30.17F WCI  26
LA VETA PASS   PTCLDY    23  10  58 SW16G36   30.04F WCI  10
SAGUACHE       NOT AVBL
$$

COZ035-036-038>040-260000-
...NORTHERN COLORADO FRONT RANGE...

CITY           SKY/WX    TMP DP  RH WIND       PRES   REMARKS
DENVER INTL AP MOCLDY    46  17  31 W12       29.88R
DMNS CITY PARK   N/A     47  17  30 W25G36    29.89S
AURORA         MOCLDY    43  17  35 W16G24    29.90R
FRONT RANGE AP NOT AVBL
ERIE MUNI ARPT PTCLDY    49  15  25 W10G17    29.87R
BOULDER MUN AP PTCLDY    46  18  31 NW14G26   29.86S
CENTENNIAL     MOCLDY    45  19  35 NW24G31   29.91R
BROOMFIELD     MOCLDY    46  18  31 W21G35    29.90R
FORT COLLINS   CLEAR     50  21  32 NW29G43   29.87R
LONGMONT       CLEAR     54  17  23 CALM      29.87R
$$

COZ041-046-047-076>085-087-088-260000-
...PIKES PEAK/PALMER DIVIDE AND SOUTHERN FOOTHILLS...

CITY           SKY/WX    TMP DP  RH WIND       PRES   REMARKS
COLO. SPRINGS  MOCLDY    48  15  26 NW17G35   29.90R
A. F. ACADEMY  CLEAR     45  14  28 NW23G29   29.91R
ELLICOTT       NOT AVBL
FALCON         NOT AVBL
FORT CARSON    MOCLDY    44  17  33 SE15      29.89R
LIMON          PTCLDY    44  15  31 NW16      29.89R
MONUMENT HILL  MOCLDY    36  19  51 NW8       29.92R
TRINIDAD       PTCLDY    46  20  35 NW15      29.95F
$$

COZ042>045-048>051-090-091-260000-
...NORTHEAST COLORADO...

CITY           SKY/WX    TMP DP  RH WIND       PRES   REMARKS
GREELEY ARPT   PTCLDY    48  21  34 NW22G28   29.86S
AKRON          CLOUDY    43  14  31 W6        29.87R
BURLINGTON     CLOUDY    50  11  20 NW13      29.87R
WRAY           CLOUDY    50  19  29 NW13G23   29.86R
STERLING       CLOUDY    52  27  37 N20G26    29.85R
HOLYOKE        CLOUDY    46  27  46 NW29G38   29.86R
FORT MORGAN    CLOUDY    50  19  29 NW31G37   29.88R
$$

COZ086-089-092>099-260000-
...SOUTHEAST COLORADO...

CITY           SKY/WX    TMP DP  RH WIND       PRES   REMARKS
PUEBLO         CLOUDY    55  17  22 W28G35    29.87R
LA JUNTA       MOCLDY    47  21  35 W8        29.89S
LAMAR          PTCLDY    51  13  21 W6        29.88S
SPRINGFIELD      N/A     49  13  23 W8        29.91F
$$



USA.gov is the U.S. government's official web portal to all federal, state and local government web resources and services.